Regional Weather Roundup
Issued by NWS Northern Indiana

Home | Current Version | Previous Version | Text Only | Print | Product List | Glossary On
Versions: 1 2 3 4 5 6 7 8 9 10 11 12 13 14 15 16 17 18 19 20 21 22 23 24 25 26 27 28 29 30 31 32 33 34 35 36 37 38 39 40 41 42 43 44 45 46 47 48 49 50
000
ASUS43 KIWX 220110
RWRIWX

KIWX WEATHER ROUNDUP
NATIONAL WEATHER SERVICE NORTHERN INDIANA
900 PM EDT FRI JUL 21 2017

NOTE: "FAIR" INDICATES FEW OR NO CLOUDS BELOW 12,000 FEET WITH NO
SIGNIFICANT WEATHER AND/OR OBSTRUCTIONS TO VISIBILITY.

* THESE STATIONS ARE NOT UNDER NWS QUALITY CONTROL. THEY ALSO MAY NOT
  REPORT WEATHER SUCH AS PRECIPITATION OR FOG.

INZ001>027-220200-
NORTHERN INDIANA

CITY           SKY/WX    TMP DP  RH WIND       PRES   REMARKS
GARY*          MOCLDY    82  72  69 E8        29.89F
VALPARAISO     PTCLDY    79  76  90 E6        29.91F
MICHIGAN CITY* CLOUDY    73  73 100 CALM      29.91F
LAPORTE*       CLOUDY    77  75  92 E3        29.92F
KNOX*          PTCLDY    79  73  83 SE3       29.92S
SOUTH BEND     CLOUDY    78  71  79 E3        29.93F
ELKHART*       CLOUDY    81  72  74 CALM      29.94S
GOSHEN         MOCLDY    79  72  79 CALM      29.95R
MONTICELLO*    CLEAR     81  76  84 CALM      29.91S
LOGANSPORT*    CLEAR     79  73  83 CALM      29.94R
ROCHESTER*     CLEAR     81  73  78 E3        29.94R
WARSAW*        PTCLDY    79  70  73 CALM      29.95R
AUBURN*        CLEAR     81  70  69 CALM      29.96R
FORT WAYNE     PTCLDY    79  69  71 S3        29.95R
HUNTINGTON*    CLEAR     76  73  91 CALM      29.94S
PERU/GRISSOM   CLEAR     80  76  85 S5        29.93R
MARION*        CLEAR     79  73  83 CALM      29.96R

$$
INZ028>050-220200-
CENTRAL INDIANA

CITY           SKY/WX    TMP DP  RH WIND       PRES   REMARKS
LAFAYETTE      PTCLDY    81  76  84 SE3       29.90S
KOKOMO*        CLEAR     79  75  87 SE5       29.95R
MUNCIE*        CLOUDY    82  73  74 S5        29.94F
INDIANAPOLIS   CLOUDY    84  74  71 SE8       29.91F

$$
MIZ043>046-050>051-056>058-064>065-071>073-077>080-220200-
SOUTHWEST LOWER MICHIGAN

CITY           SKY/WX    TMP DP  RH WIND       PRES   REMARKS
BATTLE CREEK   CLOUDY    80  69  69 N5        29.96F
BENTON HARBOR  CLOUDY    75  70  84 E3        29.91F
COLDWATER*     CLOUDY    80  71  73 N3        29.96R
HILLSDALE*     MOCLDY    77  70  78 CALM      29.96S
HOLLAND        CLOUDY    76  68  76 N3        29.94S
GRAND RAPIDS   CLOUDY    77  69  76 N3        29.94F
KALAMAZOO      CLOUDY    81  67  62 N6        29.95F
STURGIS*       PTCLDY    77  73  87 CALM      29.95R
THREE RIVERS*  LGT RAIN  80  69  70 CALM      29.95S

$$
OHZ001>008-015>018-024>025-220200-
NORTHWEST OHIO

CITY           SKY/WX    TMP DP  RH WIND       PRES   REMARKS
WAUSEON*       FAIR      77  73  88 CALM      29.94S
DEFIANCE       CLEAR    N/A N/A N/A SW3       29.94R
FINDLAY        PTCLDY    81  68  64 SW5       29.94S
TOLEDO EXPRESS CLEAR     77  72  84 CALM      29.93S
TOLEDO METCALF CLEAR     81  67  62 E3        29.94S
LIMA           CLOUDY    78  72  81 S3        29.95F

$$
AND FOR LAKE MICHIGAN COASTAL AND OPEN LAKE BUOY OBSERVATIONS

STATION/POSITION TEMP    WIND        PRES    VSBY  WAVE
                 AIR SEA DIR/SP/G                  HT/PER
                 (F)     (DEG/KT/KT) (MB)    (MI)  (FT/S)
CALUMET HARBOR    77      80/  6/  8 1011.7F
MICHIGAN CITY     76      70/  4/  4   N/A
BURNS HARBOR      77      80/  8/ 10 1012.9F
SAINT JOSEPH      74      30/  2/  3 1013.2
SOUTH LAKE BUOY   73 72   60/  6/  8 1013.2          0
4 MI NW BRIDGMAN  76 79  110/ 10/ 12 1012.0          1/ 2
MICHIGAN CITY     76 76  110/  6/  8   N/A           1/ 2

$$
&&




USA.gov is the U.S. government's official web portal to all federal, state and local government web resources and services.